Zurück zum Katalog

STARLINK-37592

AktivKommunikationSSO
NORAD 69025·PAYLOAD·🇺🇸 United States

Gestartet May 6, 2026 von Vandenberg Space Force Base

Loading…

Nächste Überflüge (nächste 24 Stunden)

TLE

AktuellSource: CelesTrak SupGP

Epoche: Sep 14, 2026, 14:41 UTC

1 69025C 26101A   26257.61229167 -.00026897  00000+0 -83492-3 0  2577
2 69025  97.2844 111.1236 0001879  86.6826 242.3021 15.33452275    16

Verfolge STARLINK-37592 in Echtzeit mit AllMySat

Download on the App Store